Regional Weather Roundup
Issued by NWS

Home | Current Version | Previous Version | Text Only | Print | Product List | Glossary Off
Versions: 1 2 3 4 5 6 7 8 9 10 11 12 13 14 15 16 17 18 19 20 21 22 23 24 25 26 27 28 29 30 31 32 33 34 35 36 37 38 39 40 41 42 43 44 45 46 47 48 49 50

000
ASUS43 KFSD 181110
RWRSD

WEATHER ROUNDUP FOR SOUTH DAKOTA
NATIONAL WEATHER SERVICE SIOUX FALLS SD
600 AM CDT SAT APR 18 2015

NOTE: "FAIR" INDICATES FEW OR NO CLOUDS BELOW 12,000 FEET WITH NO
SIGNIFICANT WEATHER AND/OR OBSTRUCTIONS TO VISIBILITY.


SDZ001>005-009-010-012>017-181200-
NORTHWEST AND NORTH CENTRAL SOUTH DAKOTA

CITY           SKY/WX    TMP DP  RH WIND       PRES   REMARKS
BUFFALO          N/A     44  34  67 W6        29.96F
FAITH            N/A     48  38  68 N5        30.01F
MOBRIDGE       CLOUDY    49  28  44 CALM      30.01S
$$

SDZ012>016-024>037-041>051-057-063-072>074-181200-
SOUTHWEST AND SOUTH CENTRAL SOUTH DAKOTA

CITY           SKY/WX    TMP DP  RH WIND       PRES   REMARKS
RAPID CTY ARPT LGT RAIN  48  45  89 E6        30.01S
PIERRE         CLOUDY    53  43  68 N13       29.98F
CUSTER         LGT RAIN  41  40  96 E7        30.01F VSB 1/4
ELLSWORTH AFB  LGT RAIN  48  46  93 CALM      30.01
PHILIP         CLOUDY    49  46  90 VRB3      29.99F
PINE RIDGE     RAIN      47  44  90 NE20G25   29.95F
SPEARFISH      CLOUDY    45  41  87 E3        30.02F
WINNER         LGT RAIN  51  42  71 E10       29.96F
$$

SDZ004>011-016>023-039-040-181200-
NORTHEAST SOUTH DAKOTA

CITY           SKY/WX    TMP DP  RH WIND       PRES   REMARKS
ABERDEEN       MOCLDY    40  26  57 N7        30.05F
WATERTOWN      MOCLDY    51  27  39 E8        30.04S
BROOKINGS      MOCLDY    54  23  30 NE6       30.03S
SISSETON         N/A     37  24  59 NW3       30.08S
$$

SDZ017-020-022-023-036>040-048>070-181200-
SOUTHEAST SOUTH DAKOTA

CITY           SKY/WX    TMP DP  RH WIND       PRES   REMARKS
SIOUX FALLS    CLOUDY    55  28  35 E7        30.00F
HURON          CLOUDY    50  28  42 CALM      30.00S
CHAMBERLAIN    CLOUDY    52  35  53 SW3       29.99S
MITCHELL       CLOUDY    55  28  35 E7        29.98F
YANKTON        CLOUDY    55  32  41 NE7       29.96S
$$

ABBREVIATIONS USED IN REMARKS
   TC - TEMPERATURE IN CELSIUS
  WCI - WIND CHILL INDEX
   HX - HEAT INDEX
  VSB - VISIBILITY




USA.gov is the U.S. government's official web portal to all federal, state and local government web resources and services.